Home   Weather   Troisdorf   Past weeks

Flag for Germany Past Weather in Troisdorf, North Rhine-Westphalia, Germany — Yesterday and Last 2 Weeks

Now
21 °F

Clear.


Feels Like: 21 °F
Forecast: 15 / 31 °F
Wind: No wind

Location: Koeln / Bonn

Current Time: Jan 18, 2017 at 11:17:17 pm

Latest Report: Jan 18, 2017 at 10:50 pm


Visibility: 10 mi

Pressure: 30.66 "Hg

Humidity: 93%

Dew Point: 19 °F

Location of TroisdorfLocation

Past Weather in Troisdorf — Graph

°F

Troisdorf Temperature Yesterday

Maximum temperature yesterday: 32 °F (at 3:20 pm)
Minimum temperature yesterday: 16 °F (at 4:50 am)
Average temperature yesterday: 23 °F

High & Low Weather Summary for the Past Weeks

 TemperatureHumidityPressure
High46 °F (Jan 11, 4:20 pm)100% (Jan 4, 3:20 am)30.74 "Hg (Jan 4, 3:20 am)
Low12 °F (Jan 18, 7:20 am)51% (Jan 5, 3:20 pm)28.97 "Hg (Jan 13, 1:20 am)
Average32 °F87%30.17 "Hg
* Reported Jan 3 10:20 pm — Jan 18 10:20 pm, Troisdorf, Weather by CustomWeather, © 2017

Note: Actual official high and low records may vary slightly from our data, if they occured in-between our weather recording intervals... More about our weather records

Advertising

Troisdorf Weather History for the Previous 24 Hours

Scroll right to see more
 ConditionsComfort  
Time TempWeatherWind HumidityBarometerVisibility
10:20 pm
Wed, Jan 18
21 °FClear.No wind100%30.63 "Hg10 mi
9:50 pm21 °FClear.1 mph93%30.63 "Hg10 mi
9:20 pm21 °FClear.1 mph93%30.63 "Hg10 mi
8:50 pm25 °FPassing clouds.3 mph86%30.66 "HgN/A
8:20 pm23 °FClear.No wind93%30.66 "Hg10 mi
7:50 pm27 °FClear.1 mph80%30.63 "Hg10 mi
7:20 pm27 °FClear.2 mph80%30.63 "Hg10 mi
6:50 pm27 °FClear.No wind80%30.63 "Hg10 mi
6:20 pm28 °FClear.2 mph74%30.66 "Hg10 mi
5:50 pm30 °FClear.2 mph69%30.66 "Hg10 mi
5:20 pm30 °FClear.2 mph69%30.66 "Hg10 mi
4:50 pm30 °FSunny.3 mph69%30.66 "Hg10 mi
4:20 pm32 °FPassing clouds.3 mph64%30.66 "HgN/A
3:50 pm32 °FPassing clouds.3 mph64%30.66 "HgN/A
3:20 pm32 °FSunny.1 mph64%30.66 "Hg10 mi
2:50 pm30 °FPassing clouds.3 mph64%30.66 "HgN/A
2:20 pm30 °FPassing clouds.5 mph64%30.66 "HgN/A
1:50 pm30 °FPassing clouds.3 mph69%30.66 "HgN/A
1:20 pm28 °FPassing clouds.5 mph69%30.66 "HgN/A
12:50 pm28 °FPassing clouds.6 mph69%30.69 "HgN/A
12:20 pm28 °FPassing clouds.6 mph69%30.69 "HgN/A
11:50 am27 °FPassing clouds.6 mph74%30.69 "HgN/A
11:20 am27 °FPassing clouds.6 mph74%30.69 "HgN/A
10:50 am25 °FSunny.3 mph80%30.69 "Hg10 mi
10:20 am25 °FSunny.3 mph80%30.69 "Hg10 mi
9:50 am23 °FSunny.6 mph80%30.69 "Hg10 mi
9:20 am19 °FSunny.3 mph93%30.69 "Hg10 mi
8:50 am18 °FPassing clouds.3 mph93%30.69 "HgN/A
8:20 am14 °FClear.3 mph92%30.69 "Hg10 mi
7:50 am16 °FClear.2 mph93%30.69 "Hg10 mi
7:20 am12 °FClear.2 mph92%30.69 "Hg10 mi
6:50 am16 °FClear.3 mph86%30.69 "Hg10 mi
6:20 am16 °FClear.1 mph93%30.66 "Hg10 mi
5:50 am16 °FClear.3 mph86%30.66 "Hg10 mi
5:20 am16 °FClear.2 mph93%30.66 "Hg10 mi
4:50 am16 °FClear.2 mph93%30.66 "Hg10 mi
4:20 am18 °FClear.5 mph93%30.66 "Hg10 mi
3:50 am16 °FClear.2 mph93%30.66 "Hg10 mi
3:20 am16 °FClear.3 mph93%30.66 "Hg10 mi
2:50 am16 °FClear.1 mph93%30.66 "Hg10 mi
2:20 am16 °FClear.2 mph93%30.66 "Hg10 mi
1:50 am14 °FClear.1 mph92%30.66 "Hg10 mi
1:20 am18 °FClear.1 mph93%30.66 "Hg10 mi
12:50 am14 °FClear.1 mph92%30.66 "Hg10 mi
12:20 am18 °FClear.1 mph93%30.66 "Hg10 mi
11:50 pm
Tue, Jan 17
18 °FClear.1 mph93%30.66 "Hg10 mi
11:20 pm18 °FClear.3 mph93%30.66 "Hg10 mi
Weather by CustomWeather, © 2017

See weather overviewHow to use our weather pages